Regional Weather Roundup
Issued by NWS

Home | Current Version | Previous Version | Graphics & Text | Print | Product List | Glossary On
Versions: 1 2 3 4 5 6 7 8 9 10 11 12 13 14 15 16 17 18 19 20 21 22 23 24 25 26 27 28 29 30 31 32 33 34 35 36 37 38 39 40 41 42 43 44 45 46 47 48 49 50
000
ASUS43 KDMX 270106
RWRIA

WEATHER ROUNDUP FOR IOWA
NATIONAL WEATHER SERVICE DES MOINES IA
800 PM CDT WED JUL 26 2017

NOTE: "FAIR" INDICATES FEW OR NO CLOUDS BELOW 12,000 FEET WITH NO
SIGNIFICANT WEATHER AND/OR OBSTRUCTIONS TO VISIBILITY.

* - THESE STATIONS ARE NOT NWS STATIONS...THUS NOT UNDER NWS
QUALITY CONTROL.  THEY ALSO DO NOT REPORT WEATHER SUCH
AS PRECIPITATION OR FOG.

IAZ001>003-012>014-020>022-031>034-043>046-270200-
   NORTHWEST IOWA

CITY           SKY/WX    TMP DP  RH WIND       PRES   REMARKS
CARROLL *      PTCLDY    77  73  88 NE10      29.99S
CHEROKEE *     PTCLDY    78  73  85 N3        30.01R
DENISON *      CLOUDY    79  72  78 NE5       30.01S HX  82
ORANGE CITY *  CLEAR     81  68  65 NE9       30.03R HX  83
SHELDON *      CLEAR     77  64  65 N9        30.02R
SIOUX CITY     PTCLDY    82  72  71 NE7       29.99S HX  87
SPENCER        MOCLDY    80  66  62 N13       30.02R HX  82
STORM LAKE *   CLEAR     77  72  83 CALM      30.02R
$$

IAZ055>058-069>071-079>083-090>094-270200-
   SOUTHWEST IOWA

CITY           SKY/WX    TMP DP  RH WIND       PRES   REMARKS
ATLANTIC *     MOCLDY    75  73  94 CALM      29.99S
AUDUBON *      MOCLDY    75  72  88 CALM      30.01R
CLARINDA *     CLOUDY    77  77 100 CALM      29.99S
COUNCIL BLFS * CLOUDY    75  75 100 NE3       29.98F
CRESTON *      CLOUDY    75  73  94 CALM      30.00S
HARLAN  *      CLOUDY    75  73  94 CALM      30.02F
LAMONI         MOCLDY    79  75  87 SE5       29.97F HX  83
RED OAK *      CLOUDY    77  75  94 NE5       29.98S
SHENANDOAH *   CLOUDY    75  73  94 CALM      29.97F
$$

IAZ047>049-059>061-072>074-084-270200-
   CENTRAL IOWA

CITY           SKY/WX    TMP DP  RH WIND       PRES   REMARKS
AMES           CLOUDY    74  74 100 N5        29.98S
ANKENY *       RAIN      73  72  94 CALM      29.98S
BOONE *        CLOUDY    73  72  94 N5        29.99R
CHARITON *     CLOUDY    77  73  88 CALM      29.97S
DES MOINES     CLOUDY    76  73  91 W7        29.97R
GRINNELL*      CLOUDY    76  71  85 CALM      29.98S
KNOXVILLE *    CLOUDY    77  72  83 W3        29.96S
MARSHALLTOWN   CLOUDY    75  71  87 NW5       29.97S
NEWTON *       CLOUDY    75  72  88 W6        29.98S
PELLA *        CLOUDY    77  72  82 CALM      29.98S
PERRY *        CLOUDY    77  74  91 CALM      29.99S
$$

IAZ004>006-015-016-023>025-035-036-270200-
   NORTH CENTRAL IOWA

CITY           SKY/WX    TMP DP  RH WIND       PRES   REMARKS
ALGONA *       CLOUDY    77  73  88 CALM      30.01R
CLARION *      MOCLDY    75  73  94 CALM      30.01R
ESTHERVILLE    MOCLDY    76  66  71 N13       30.01R
FORT DODGE *   MOCLDY    73  70  88 SE3       30.01S
MASON CITY     CLOUDY    74  68  81 SW5       30.02R
FOREST CITY *  CLOUDY    77  70  78 SW5       30.00S
WEBSTER CITY * PTCLDY    73  70  88 CALM      29.98S
IOWA FALLS *   CLOUDY    74  70  88 NW8       30.01R
$$

IAZ007>011-017>019-026>030-037>042-050>054-066-270200-
   NORTHEAST IOWA

CITY           SKY/WX    TMP DP  RH WIND       PRES   REMARKS
CHARLES CITY * CLOUDY    75  70  83 W6        30.00R
DECORAH *      CLOUDY    75  72  88 CALM      29.97S
DUBUQUE        CLOUDY    71  68  90 S8        29.98R
MONTICELLO *   CLOUDY    73  72  94 CALM      29.96R
WATERLOO       CLOUDY    76  71  85 NW3       29.96S
$$

IAZ064-065-067-068-078-270200-
   EAST CENTRAL IOWA

CITY           SKY/WX    TMP DP  RH WIND       PRES   REMARKS
DAVENPORT      CLOUDY    73  70  90 CALM      29.98R
IOWA CITY      CLOUDY    77  73  87 S5        29.96R
MT. PLEASANT * CLOUDY    74  74 100 CALM      29.96S
MUSCATINE *    CLOUDY    75  72  88 SW5       29.96R
QUAD CITIES    CLOUDY    74  69  85 CALM      29.96R
$$

IAZ062-063-075>077-085>089-095>099-270200-
   SOUTHEAST IOWA

CITY           SKY/WX    TMP DP  RH WIND       PRES   REMARKS
BURLINGTON     CLOUDY    75  74  96 CALM      29.95S
FAIRFIELD *    MOCLDY    79  75  89 CALM      29.96S HX  82
FORT MADISON * CLOUDY    73  73 100 CALM      29.97S
KEOKUK *       CLOUDY    77  73  88 CALM      29.95S
OSKALOOSA *    CLOUDY    77  72  85 CALM      29.98S
CENTERVILLE *    N/A     79  75  89 CALM      29.98F HX  82
OTTUMWA        CLOUDY    79  73  82 NW3       29.96S HX  82
WASHINGTON *   MOCLDY    77  73  88 SW3       29.97S
$$

ABBREVIATIONS USED IN REMARKS
   TC - TEMPERATURES IN CELSIUS
  WCI - WIND CHILL INDEX
   HX - HEAT INDEX
  VSB - VISIBILITY
$$




USA.gov is the U.S. government's official web portal to all federal, state and local government web resources and services.